Regional Weather Roundup
Issued by NWS Grand Forks, ND

Home | Current Version | Previous Version | Graphics & Text | Print | Product List | Glossary On
Versions: 1 2 3 4 5 6 7 8 9 10 11 12 13 14 15 16 17 18 19 20 21 22 23 24 25 26 27 28 29 30 31 32 33 34 35 36 37 38 39 40 41 42 43 44 45 46 47 48 49 50
000
ASUS43 KFGF 282110
RWRFGF
PRAIRIE TO PINES  WEATHER ROUNDUP
NATIONAL WEATHER SERVICE EASTERN NORTH DAKOTA/GRAND FORKS ND
300 PM CST SUN DEC 28 2014

 **SATELLITE DATA USED TO AUGMENT SKY COVER AT AUTOMATED STATIONS**
 *****  WEATHER ACROSS EASTERN NORTH DAKOTA  *****

CITY           SKY/WX    TMP DP  RH WIND       PRES   REMARKS
GRAND FORKS    SUNNY      0  -8  69 N10       30.36R WCI -16
GRAND FRKS AFB SUNNY      0  -8  70 N12       30.36R WCI -17
GRAND FRKS NWS   N/A      0 N/A N/A N3          N/A
DEVILS LAKE    SUNNY     -2  -9  71 NE8       30.29R WCI -17
FARGO          SUNNY      6  -4  63 N16       30.31R WCI -12
WAHPETON ARPT  CLEAR     10   1  67 N10       30.27R WCI  -3
$$

 ***** WEATHER ACROSS CENTRAL AND WESTERN NORTH DAKOTA  *****

CITY           SKY/WX    TMP DP  RH WIND       PRES   REMARKS
BISMARCK       FLURRIES   9   4  80 E13       30.21R WCI  -7
MINOT          CLOUDY     2  -4  76 N8        30.27R WCI -12
JAMESTOWN      PTSUNNY    2  -4  76 N13       30.25R WCI -15
MINOT AFB      CLOUDY     1  -2  90 NE6       30.28R WCI -11
GARRISON         N/A      7   2  80 E8        30.21R WCI  -6
WILLISTON      CLOUDY    11   1  64 NE13      30.21R WCI  -4
DICKINSON      LGT SNOW  16  11  80 NE13      30.06R WCI   2
HETTINGER      LGT SNOW  21  17  84 E13       30.03S FOG     WCI   9
$$

 *****  OTHER AIRPORT OBSERVATIONS IN OUR AREA  *****

CITY           SKY/WX    TMP DP  RH WIND       PRES   REMARKS
WALHALLA         N/A      0  -8  71 NW9       30.38R WCI -16
GRAFTON AIRPOR NOT AVBL
VALLEY CITY AR FAIR       5   0  78 NE10      30.26R WCI -10
CANDO          FAIR       1  -6  71 N5        30.31R WCI  -8
CAVALIER APRT  FAIR       0  -9  65 N8        30.38R WCI -15
GWINNER        MOCLDY     9   0  66 N9        30.27R WCI  -5
SHEYENNE NWR     N/A      7  -5  58 NE7       29.95  WCI  -5
ROLLA          FAIR       0  -4  85 N6        30.27R WCI -12
 ***** THE ABOVE OBSERVATIONS ARE NON NWS ARE NOT QUALITY
       CONTROLLED AND MAY MIS-REPORT RAIN FOR SNOW...
$$

  *****  WEATHER ACROSS NORTHERN MINNESOTA  *****

CITY           SKY/WX    TMP DP  RH WIND       PRES   REMARKS
FLAG ISLAND    PTCLDY    -2  -9  71 NW12      30.27R WCI -20
WARROAD        CLEAR      1  -8  66 W5        30.28R WCI  -8
ROSEAU         CLEAR      1  -8  66 W7        30.30R WCI -11
HALLOCK        SUNNY     -2 -11  65 NW9       30.37R WCI -18
THF RVR FALLS  SUNNY      0  -8  71 NW8       30.31R WCI -15
BAUDETTE       CLEAR     -1 -10  65 NW8       30.26R WCI -15
WASKISH        SUNNY      3  -2  78 SW3       30.25R
CROOKSTON      SUNNY     -2  -8  78 N12       30.36R WCI -20
STEPHEN NDAWN    N/A     -2  -9  71 N12         N/A  WCI -20
GREENBUSH NDAW   N/A      0  -8  71 W10         N/A  WCI -17
$$
  *****  WEATHER ACROSS CENTRAL AND WEST MINNESOTA  *****

CITY           SKY/WX    TMP DP  RH WIND       PRES   REMARKS
FOSSTON        SUNNY      3  -6  66 NW7       30.28R WCI  -9
BEMIDJI        SUNNY      5  -5  64 N8        30.22R WCI  -8
PARK RAPIDS    SUNNY     12  -3  51 CALM      30.20R
ELBOW LAKE     FAIR      16   2  54 NE7       30.21R WCI   6
WADENA         SUNNY     14   0  52 N7        30.20R WCI   4
DETROIT LAKES  SUNNY      9   3  78 N12       30.24R WCI  -6
MOORHEAD       SUNNY      7   0  72 N16       30.30R WCI -11
FERGUS FALLS   SUNNY     14   0  52 N8        30.26R WCI   3
MORRIS MN      MOSUNNY   18   9  68 N10       30.20R WCI   6
STAPLES        SUNNY     14  -2  48 N8        30.20R WCI   3
$$
  *****  WEATHER ELSEWHERE ACROSS MINNESOTA  *****

CITY           SKY/WX    TMP DP  RH WIND       PRES   REMARKS
DULUTH         SUNNY     10  -4  53 NW9       30.16R WCI  -3
INTRNTL FALLS  CLEAR      2  -8  63 W8        30.23R WCI -12
ELY            CLEAR      7  -8  51 W9        30.16R WCI  -7
CLOQUET        SUNNY     10  -6  48 NW6       30.18R WCI   1
WHEATON        MOSUNNY    9   1  72 NW10      30.27R WCI  -6
BRAINERD       SUNNY     14  -2  49 N9        30.21R WCI   2
HIBBING        SUNNY      9  -4  55 NW8       30.19R WCI  -3
ALEXANDRIA     SUNNY     19   1  45 N8        30.18R WCI   9
SAINT CLOUD    SUNNY     22   5  48 N9        30.19R WCI  12
MINNEAPOLIS    PTSUNNY   23  14  68 E3        30.20R
$$

  *****  WEATHER ACROSS SOUTH DAKOTA  *****

CITY           SKY/WX    TMP DP  RH WIND       PRES   REMARKS
SIOUX FALLS    CLOUDY    20  17  88 NE14      30.14R WCI   7
BROOKINGS      NOT AVBL
WATERTOWN      SUNNY     15   9  76 NE8       30.15R WCI   4
HURON          CLOUDY    20  16  84 NE10      30.17R WCI   9
SISSETON         N/A      8   2  76 N12       30.24R WCI  -7
ABERDEEN       CLOUDY    11   4  73 NE13      30.22R WCI  -4
MITCHELL       MOSUNNY   21  15  78 NE8       30.15R WCI  11
PIERRE         CLOUDY    18  15  88 E14       30.09R WCI   4
MOBRIDGE       CLOUDY    16  11  80 E14       30.11R WCI   2
RAPID CITY     FLURRIES  25  17  72 NE8       29.94R WCI  16
$$

  *****  SOME WEATHER IN NEARBY STATES *****

CITY           SKY/WX    TMP DP  RH WIND       PRES   REMARKS
GLASGOW MT     LGT SNOW  14   7  73 NE17      30.15R WCI  -3
GREAT FALLS MT HVY SNOW  14  11  87 NW13      30.14R VSB 1/4 WCI   0
CHEYENNE WY    SUNNY     30  12  47 NW8       29.80F WCI  22
SCOTTSBLUFF NE CLOUDY    30  22  72 N5        29.88S
OMAHA NE       PTSUNNY   34  20  56 E3        30.12F
DES MOINES IA  MOSUNNY   35  23  61 SW3       30.14S
DAVENPORT IA   SUNNY     33  17  51 W3        30.17S
CHICAGO IL     MOSUNNY   35  14  42 W12       30.15R
EAU CLAIRE WI  CLOUDY    19  13  77 CALM      30.18R
LA CROSSE WI   CLOUDY    29  18  63 N3        30.17R
$$

  *****  SOME NATIONAL WEATHER *****

CITY           SKY/WX    TMP DP  RH WIND       PRES   REMARKS
LA GUARDIA NY  CLOUDY    51  42  71 NW9       29.92R
RALEIGH NC     CLOUDY    59  55  87 SW5       30.02R
ATLANTA GA     CLOUDY    61  58  90 W3        30.05S
NEW ORLEANS LA CLOUDY    60  56  86 NW9       30.04F
OKLAHOMA CITY  SUNNY     41  22  46 S9        30.11F
ALBUQUERQUE NM PTSUNNY   36  10  34 CALM      30.10F
SALT LAKE CITY LGT SNOW  29  27  92 SE10      30.06S FOG     WCI  20
LOS ANGELES CA MOSUNNY   59  31  34 SW6       30.20F
BOISE ID       CLOUDY    33  30  88 CALM      30.08F
SEATTLE WA     PTSUNNY   42  38  85 S6        30.19F
$$

*** WEATHER ACROSS MANITOBA...SASKATCHEWAN AND ONTARIO ***
                ***ONTARIO***

CITY           SKY/WX    TMP DP  RH WIND       PRES   REMARKS
GERALDTON      PTCLDY    -2  -9  71 W9        30.03R WCI -18
THUNDER BAY    PTCLDY     9  -4  56 W14       30.16R WCI  -8
SIOUX LOOKOUT  PTCLDY    -9 -17  70 NW8       30.18R WCI -26
TORONTO        MOCLDY    37  25  60 W13G20    30.01R
BIG TROUT LK   CLEAR    -17 -22  76 W13G18    30.07R WCI -39
PICKLE LAKE    CRYSTALS -11 -18  70 W14       30.06R WCI -33
DRYDEN         CLEAR     -8 -13  77 W10       30.19R WCI -26
KENORA         NOT AVBL
$$
                *** MANITOBA***

CITY           SKY/WX    TMP DP  RH WIND       PRES   REMARKS
BRANDON        MOSUNNY   -4 -13  65 W9        30.34R WCI -20
DAUPHIN        CLEAR     -9 -15  77 W5        30.40R WCI -21
ISLAND LAKE    PTCLDY   -17 -24  70 W12       30.25R WCI -38
PILOT MOUND      N/A     -4 -11  71 W6          N/A  WCI -16
THE PAS        MOCLDY   -17 -22  76 NW10      30.46R WCI -37
THOMPSON       CLEAR    -17 -24  70 NW7       30.35R WCI -33
WINNIPEG       NOT AVBL
CHURCHILL      CRYSTALS -13 -17  84 NW18G26   30.19R WCI -38
$$
                ***SASKATCHEWAN***

CITY           SKY/WX    TMP DP  RH WIND       PRES   REMARKS
ESTEVAN        CLOUDY    -2 -11  65 N6        30.29R WCI -14
KINDERSLEY     NOT AVBL
LLOYDMINSTER   MOSUNNY   -8 -13  77 NW5       30.42R WCI -19
PRINCE ALBERT  NOT AVBL
REGINA         NOT AVBL
YORKTON        SUNNY    -11 -17  77 NW7       30.35R WCI -26
N. BATTLEFORD  SUNNY     -9 -15  77 NW6       30.48R WCI -23
LA RONGE       PTCLDY   -18 -24  76 W6        30.52R WCI -33
SASKATOON      MOSUNNY   -9 -15  77 NW6       30.46R WCI -23
SWIFT CURRENT  CLOUDY     0  -4  85 NE10      30.26R WCI -17
$$
NOTE: THESE ARE AUTOMATED STATIONS WITH LIMITED QUALITY CONTROL
      "FAIR" INDICATES FEW OR NO CLOUDS BELOW 12,000 FEET WITH NO
      SIGNIFICANT WEATHER AND/OR OBSTRUCTIONS TO VISIBILITY.
      SKY/WX - SKY CONDITION AND SIGNIFICANT WEATHER.
      TMP - AIR TEMPERATURE.    DP   - DEWPOINT TEMPERATURE.
      RH  - RELATIVE HUMIDITY.  PRES - PRESSURE.
      HX  - HEAT INDEX.         WCI  - WIND CHILL INDEX.
$



USA.gov is the U.S. government's official web portal to all federal, state and local government web resources and services.